Theta_e
311 308 310 311 311 310 310 310 309 309 310 309 309 308 308 307 307 307 307 308 308 312 310 310 311 314 313 313 315 313 315 316 317 325 320 321 321 322 321 319 320 321 321 319 318 322 324 326 334 331 329 341 350 351
313 311 309 308 308 309 309 309 309 309 310 309 308 308 307 307 307 308 307 308 308 307 309 309 309 310 311 313 313 313 314 313 313 316 321 323 325 325 323 328 320 328 321 323 319 320 317 323 328 332 334 341 345 342
313 313 312 310 308 307 307 308 309 309 309 309 309 308 307 307 307 307 308 308 306 308 309 308 309 310 311 310 311 313 311 312 312 310 314 319 330 324 329 328 328 325 321 325 327 327 329 330 335 339 337 339 339 338
315 314 313 312 310 308 308 308 308 309 309 309 309 309 308 307 307 306 307 307 307 309 312 310 311 312 314 313 311 311 312 309 308 308 311 317 323 321 324 322 323 321 322 326 326 327 332 334 338 338 338 337 338 337
315 315 314 313 311 309 309 308 309 309 309 309 309 308 308 308 306 306 306 306 306 308 313 312 310 312 314 312 311 311 312 312 309 311 311 319 318 319 319 320 319 317 319 328 333 326 327 331 333 338 338 338 337 336
315 315 314 313 312 310 310 310 309 309 309 309 309 308 307 307 307 306 307 308 307 306 310 315 309 312 315 312 311 311 311 308 309 311 311 311 313 318 321 324 319 319 315 316 326 321 322 329 333 337 338 336 336 335
315 315 314 313 313 312 311 310 309 308 308 309 309 307 306 306 307 307 308 309 307 307 311 316 315 315 320 316 314 311 311 310 311 312 312 312 313 315 318 322 320 320 321 320 320 327 332 333 335 333 337 336 334 334
315 314 313 313 312 312 311 310 309 309 308 309 307 306 307 310 308 307 308 309 308 309 313 320 317 320 323 324 321 313 313 311 309 311 313 313 310 312 317 319 319 322 319 321 322 320 323 326 331 333 335 336 336 336
314 314 313 312 312 312 311 309 309 309 308 308 306 307 308 307 307 310 311 311 311 311 318 319 323 326 324 325 324 319 312 315 312 312 314 311 311 314 314 314 320 320 322 323 326 326 327 328 330 332 334 335 335 333
313 313 312 312 311 311 310 309 309 308 308 306 305 306 312 311 308 309 312 314 312 314 314 318 314 323 322 323 324 327 320 317 318 316 313 315 316 312 312 311 316 319 319 325 328 329 329 330 328 330 332 331 333 332
311 310 310 311 311 310 309 309 308 307 306 304 301 302 305 306 310 314 319 319 317 320 317 317 316 320 319 324 327 327 330 328 329 325 317 317 318 318 320 320 314 316 317 322 322 323 324 325 328 329 329 328 327 327
309 309 310 310 310 309 309 308 307 306 306 305 304 305 305 308 315 321 322 322 322 324 321 322 324 322 320 322 327 328 331 328 332 326 327 329 326 327 327 325 319 319 326 329 328 329 328 328 327 326 326 326 325 325
306 306 309 310 310 309 309 308 306 306 305 305 307 309 311 314 317 322 324 323 325 323 324 324 325 325 320 325 328 330 332 331 326 330 332 332 330 328 327 328 327 327 328 328 327 326 326 326 326 325 325 326 325 325
304 306 308 309 309 309 308 306 306 306 305 307 312 312 316 319 320 322 323 323 323 324 323 322 324 326 326 325 327 332 331 328 331 333 333 332 329 327 326 326 328 327 327 326 325 325 325 324 323 323 324 325 325 325
306 308 308 309 308 308 307 307 307 305 305 308 311 314 316 317 318 320 320 321 321 322 321 322 322 325 326 328 328 331 332 331 331 331 330 328 326 328 327 326 325 325 324 323 323 323 322 322 321 321 323 324 324 324
307 308 309 308 308 308 308 307 306 305 306 309 310 311 312 316 316 317 319 320 319 320 320 322 327 328 328 327 329 330 331 332 331 330 330 326 327 326 327 326 325 324 321 321 320 320 320 320 319 319 320 321 321 321
307 307 308 308 307 307 306 305 305 308 309 311 311 311 311 312 313 315 318 318 317 319 323 324 328 329 326 329 331 329 332 329 328 329 327 326 327 326 325 323 322 322 321 319 319 320 320 320 319 318 318 319 321 321
306 307 307 307 307 305 305 305 307 310 312 311 311 307 309 312 313 314 314 313 314 316 318 322 322 326 327 330 330 327 326 325 324 325 328 326 324 323 324 323 320 320 319 319 320 320 320 319 317 317 318 320 321 321
307 307 306 306 305 304 304 308 308 310 310 310 306 304 305 308 310 310 310 312 311 311 313 317 321 322 324 323 323 323 323 322 323 326 327 326 325 324 322 320 319 319 320 320 320 320 320 320 320 319 320 320 318 318
306 305 306 305 304 304 307 308 307 309 308 304 302 304 305 307 307 308 309 310 310 311 313 317 318 318 323 322 321 321 322 322 321 326 326 326 325 324 320 320 318 318 319 320 321 322 321 322 323 322 321 321 318 317
304 307 306 305 305 304 305 305 305 308 303 305 306 307 307 306 308 309 310 309 311 311 313 312 314 315 315 319 320 319 321 321 322 322 324 325 322 324 322 322 321 320 319 318 318 318 321 321 321 323 323 323 321 320
305 306 305 306 306 307 306 303 301 301 302 304 307 308 310 311 310 309 308 311 310 310 309 310 310 311 311 312 315 319 320 320 319 319 319 319 321 322 322 322 322 322 322 321 321 321 320 321 322 322 322 322 322 322
304 304 305 306 309 305 303 301 305 305 309 309 308 311 315 317 316 312 315 313 313 312 309 308 309 310 309 310 314 315 318 318 318 317 316 316 317 318 320 322 322 322 322 323 323 322 320 321 322 322 322 322 322 320
305 304 307 306 307 303 302 305 307 309 309 310 311 314 316 315 313 318 319 318 316 317 318 317 317 316 314 314 315 315 316 320 318 318 318 318 317 317 318 320 321 322 323 324 322 322 321 321 321 321 322 322 321 320
303 300 298 299 301 305 309 311 312 312 314 313 315 316 316 314 318 320 320 319 318 320 318 315 314 314 315 314 312 311 314 318 316 315 315 318 318 318 318 318 320 322 324 323 322 322 321 321 321 320 321 322 320 319
305 302 301 307 309 308 311 313 312 312 310 312 313 312 314 318 320 319 319 315 314 314 315 315 316 314 315 312 311 311 312 313 314 317 318 318 319 318 318 317 318 319 322 324 323 321 319 319 320 320 321 321 321 320
307 304 303 302 305 309 310 306 306 307 309 312 313 314 316 319 320 320 317 315 313 313 314 314 317 316 316 316 315 314 315 314 316 317 316 315 316 318 320 318 317 320 320 321 323 323 322 321 321 321 320 320 319 319
305 304 306 308 309 306 309 307 308 309 310 311 311 314 317 318 318 313 312 312 312 313 316 318 319 318 317 316 316 315 315 315 315 314 316 317 317 319 320 320 320 321 320 321 322 323 322 322 321 320 320 320 321 321
304 305 306 307 306 306 307 308 308 305 304 307 310 312 312 312 313 312 312 313 313 318 320 319 319 319 318 318 317 317 316 315 315 316 318 317 317 318 320 321 321 322 320 321 321 322 322 321 321 322 320 320 321 321
306 306 309 310 310 308 306 306 305 303 304 306 307 309 311 312 312 313 313 314 318 320 321 320 320 319 318 320 320 320 318 316 316 315 315 316 317 320 321 322 323 322 321 321 321 321 322 322 322 322 320 321 321 321
307 309 310 311 311 311 309 306 305 306 307 309 310 313 314 314 313 315 318 319 320 321 319 319 319 318 319 319 320 318 319 320 318 316 316 317 319 320 321 321 321 323 322 321 321 321 321 321 320 320 320 320 321 320
309 309 310 311 312 310 309 309 311 313 315 317 317 314 315 316 317 317 319 320 319 319 320 320 320 320 320 320 320 321 320 322 322 323 322 319 319 321 321 320 320 321 321 321 321 321 321 320 320 319 319 321 322 320
310 310 309 310 310 312 314 316 319 321 321 322 322 322 322 319 319 317 319 318 318 319 319 320 320 320 321 321 322 322 321 320 320 322 322 321 321 322 322 320 320 320 320 320 320 320 320 321 321 322 321 321 321 320
Wind_Speed
21 21 19 18 20 22 21 21 23 23 22 22 20 18 17 16 16 13 10 8 4 3 11 12 9 8 3 3 3 4 5 1 3 2 2 3 3 4 2 4 6 5 6 3 3 3 5 6 5 8 6 1 5 5
20 20 20 21 21 22 23 22 22 22 21 22 21 19 18 17 14 13 6 5 8 4 7 28 32 34 28 16 4 3 3 1 4 1 1 1 1 0 3 2 3 1 6 4 8 6 4 4 4 2 4 6 6 8
20 20 20 21 21 21 22 23 22 22 22 23 22 19 19 18 16 13 14 12 6 4 9 5 11 20 23 40 36 3 3 6 3 3 2 2 3 3 3 5 3 2 3 3 2 3 6 5 3 3 3 3 8 7
20 20 21 21 21 21 22 23 24 24 24 23 22 20 20 20 18 17 18 12 7 2 4 7 9 12 15 19 31 44 14 3 1 1 1 2 2 2 3 2 3 4 5 5 4 6 3 2 2 6 8 9 11 8
20 21 21 21 22 22 23 24 25 24 26 26 25 23 23 22 21 21 23 22 23 6 4 8 23 15 13 24 25 29 20 12 2 4 2 3 2 1 1 1 3 4 6 5 5 6 4 2 2 3 8 8 10 15
21 21 22 21 21 21 22 24 26 25 27 28 28 26 25 22 15 8 3 1 18 21 3 4 5 6 8 9 14 10 8 3 3 4 4 4 3 2 1 2 4 3 3 5 4 3 1 4 5 4 5 7 5 7
21 20 21 21 21 21 22 23 24 25 28 30 29 29 26 22 12 5 3 3 10 15 2 5 4 4 3 4 3 3 6 3 4 3 3 2 2 3 2 3 5 1 1 2 5 7 6 1 4 6 8 7 8 8
19 20 19 20 20 21 22 23 24 26 30 30 30 27 20 5 6 8 13 14 14 4 3 3 5 5 4 1 2 4 4 2 3 3 1 2 1 1 2 6 4 0 6 6 8 6 4 6 3 5 7 10 9 8
19 19 19 19 21 20 22 23 24 26 30 30 27 13 4 2 3 3 6 9 20 5 2 2 3 3 4 2 3 2 4 3 1 4 3 4 1 4 8 7 5 7 5 7 6 9 8 7 7 5 5 6 6 7
20 20 18 19 21 21 20 20 22 24 26 22 7 2 2 2 11 12 3 3 3 3 3 3 2 3 2 3 3 2 1 3 3 5 3 3 3 6 7 6 4 6 8 9 10 1 5 4 4 4 5 1 6 9
18 19 20 18 19 21 18 17 18 21 10 7 5 2 10 14 2 2 2 3 4 3 4 4 4 2 2 2 3 1 2 1 3 3 5 3 3 6 4 8 6 6 7 3 6 6 5 6 6 5 3 3 5 5
20 19 18 17 16 16 16 15 15 10 8 10 14 12 6 3 3 4 3 3 4 3 3 2 3 4 3 2 3 2 2 1 2 2 3 3 4 2 3 6 6 7 8 8 6 9 8 8 6 6 5 5 5 9
20 20 17 17 16 14 14 12 5 10 16 5 3 3 2 2 1 4 5 3 2 3 3 3 2 2 0 2 2 2 3 4 1 1 3 3 3 3 4 5 9 10 13 12 11 10 10 8 11 8 7 9 11 12
22 19 16 16 16 13 5 2 5 9 4 2 2 5 3 3 4 2 3 3 3 2 2 3 3 1 1 1 2 4 4 3 1 2 3 1 2 4 6 5 11 10 11 13 11 10 10 10 8 12 11 9 10 7
16 15 14 15 3 0 1 5 8 8 2 3 2 4 4 2 3 3 2 4 3 2 2 3 3 2 1 2 2 3 3 3 2 2 2 1 4 4 10 8 7 10 10 9 7 9 8 8 7 8 11 10 9 7
13 11 2 2 2 5 7 11 8 3 3 3 4 3 4 3 3 4 3 3 3 3 2 2 3 1 3 3 4 5 3 2 3 3 2 3 7 6 10 9 4 4 7 7 5 7 8 7 6 7 7 7 5 3
7 3 2 4 8 11 13 5 3 4 3 3 3 4 5 5 5 3 2 3 2 3 2 1 3 3 2 2 1 3 3 3 4 3 2 2 8 10 8 7 6 5 6 6 6 8 7 9 9 7 5 3 4 3
4 5 5 7 10 12 1 5 3 3 4 4 3 3 2 3 3 4 3 2 0 2 2 1 2 2 2 2 2 2 2 4 2 2 1 2 5 5 4 7 5 7 6 7 9 7 7 7 5 3 4 3 4 3
8 8 9 9 7 4 2 2 3 3 3 2 3 2 3 4 3 4 4 4 2 2 1 1 2 1 1 1 1 2 3 2 2 2 2 3 3 4 4 8 8 6 8 6 5 5 6 6 6 6 5 4 4 3
5 6 5 5 4 1 2 3 2 3 3 3 2 3 3 3 3 3 3 2 0 1 2 1 2 2 2 3 1 2 3 3 3 2 3 1 2 4 5 6 5 7 7 7 7 7 6 4 3 4 5 4 2 1
2 1 3 2 3 4 2 2 3 2 3 2 3 2 3 2 3 2 2 1 2 2 2 3 2 1 2 2 2 3 3 3 3 2 1 1 1 4 4 5 8 7 3 3 3 2 3 3 4 5 6 5 3 1
1 2 1 2 3 3 2 4 3 3 2 3 3 2 3 3 2 2 2 1 2 3 4 3 3 3 2 2 3 9 4 3 11 4 4 3 2 2 2 4 5 3 3 4 4 4 6 6 6 7 7 6 4 4
2 1 2 1 2 0 5 1 1 2 2 3 3 3 2 2 1 0 1 2 2 2 2 3 3 2 3 7 5 4 8 8 4 2 3 1 1 1 1 3 5 4 3 5 5 4 6 8 10 12 11 9 7 6
1 0 1 1 3 3 2 2 2 2 3 2 2 3 3 2 3 0 2 3 3 3 1 2 1 0 1 1 1 1 1 3 3 1 2 3 1 2 3 3 5 8 10 6 6 4 3 7 11 14 13 11 9 10
2 2 3 3 2 1 2 3 3 1 2 2 2 2 3 2 2 2 1 2 3 3 2 3 3 2 1 2 2 3 2 3 2 2 3 3 1 2 4 5 6 6 7 10 9 6 6 9 12 13 12 11 12 11
1 3 4 2 1 1 2 2 2 2 2 3 3 3 1 1 1 2 2 1 2 3 4 4 5 4 4 3 3 3 6 6 6 2 5 5 5 5 3 3 3 6 9 13 9 5 6 8 12 12 12 13 15 14
2 2 3 3 2 2 3 3 2 1 3 2 3 3 2 2 3 2 1 2 2 5 14 16 12 5 6 5 11 11 7 8 10 7 6 7 8 8 10 6 5 13 9 11 12 10 9 7 6 5 8 13 16 17
3 2 2 1 2 2 2 2 2 2 2 3 3 2 3 3 2 3 2 13 20 22 19 17 16 15 13 13 13 10 8 7 8 8 10 12 12 13 14 15 15 14 13 12 16 14 7 1 7 12 9 10 15 16
3 2 1 4 3 3 4 4 3 2 2 1 2 3 3 2 3 7 19 20 23 17 10 6 7 5 4 4 6 9 9 9 4 4 4 2 2 3 5 8 10 9 12 12 11 15 15 11 6 11 15 9 9 9
3 3 2 2 3 3 3 3 2 2 2 2 3 3 1 3 11 17 19 17 9 6 8 7 6 3 2 3 3 3 2 10 15 9 4 4 4 2 2 1 3 6 9 13 16 15 12 11 11 17 12 7 8 10
1 0 2 2 2 2 3 3 3 2 3 3 4 4 3 3 6 7 5 9 12 8 5 6 5 6 6 5 3 2 2 1 6 11 13 9 6 4 3 2 2 1 4 9 10 12 12 14 15 14 13 16 14 11
2 3 1 2 3 3 3 0 2 2 1 2 2 3 2 2 3 3 3 6 4 4 5 5 5 4 5 4 5 7 6 4 2 3 10 12 8 5 2 3 3 4 5 5 7 10 13 13 14 16 17 18 16 13
1 1 2 2 2 3 2 2 2 4 3 3 2 2 2 0 2 3 11 15 14 11 11 12 9 9 11 11 11 9 10 6 2 2 6 7 7 7 6 5 7 8 10 12 13 12 10 8 9 10 10 9 7 2
Wind_Direction
310 319 318 316 316 316 319 323 325 324 327 330 329 331 337 337 333 333 305 294 222 260 281 255 255 245 252 180 210 301 328 300 320 31 167 214 168 223 128 178 166 149 141 190 98 130 256 182 67 161 227 97 122 122
307 309 313 314 315 315 317 320 320 321 323 324 324 325 329 324 319 315 275 293 257 250 264 288 268 252 236 225 182 237 245 321 252 348 248 285 268 357 153 206 11 259 178 190 179 211 240 256 226 306 175 153 167 135
301 306 310 310 312 314 315 315 317 317 318 320 319 318 321 316 310 296 281 288 276 263 285 257 238 262 254 235 229 199 256 213 260 194 209 230 261 131 164 241 168 237 156 172 41 274 261 256 202 154 124 125 125 122
297 301 305 306 309 311 314 314 315 315 316 316 315 312 315 312 304 295 278 264 210 279 279 285 304 268 270 235 211 212 222 64 344 35 288 230 205 177 209 232 178 199 134 174 258 273 301 338 124 133 102 99 100 100
292 300 302 304 308 311 312 312 314 314 314 315 314 313 315 310 307 296 283 260 231 214 283 292 302 285 288 226 206 211 221 236 8 335 303 246 232 77 265 65 257 179 183 167 212 211 204 244 100 92 114 119 127 121
289 294 301 301 302 304 307 311 314 314 314 314 317 316 318 311 309 306 292 310 215 202 281 291 290 293 313 191 189 188 193 163 187 195 233 266 256 127 118 217 254 215 209 212 186 160 201 97 68 52 93 129 114 114
292 293 298 298 300 306 308 310 314 315 315 316 318 319 315 303 263 200 220 109 148 181 244 286 282 270 314 122 137 113 163 190 165 241 236 226 281 97 120 203 257 249 355 73 97 117 56 353 155 107 101 87 81 77
291 295 299 300 303 307 308 311 313 315 316 318 319 319 310 328 190 237 259 228 215 226 247 271 275 313 6 304 154 169 147 184 207 228 286 199 356 71 257 252 277 5 92 57 47 54 99 101 84 110 124 130 124 125
295 298 302 305 307 308 308 313 315 317 317 320 319 318 195 221 184 212 274 294 204 211 272 262 281 299 341 282 255 212 167 156 195 199 227 112 228 213 228 225 202 213 149 135 39 82 58 73 102 94 91 94 126 137
301 300 303 310 308 308 311 315 317 319 325 322 316 311 277 131 310 305 148 187 170 205 229 248 270 276 75 248 261 285 190 172 172 229 115 154 242 246 259 222 262 195 156 133 116 101 109 104 147 155 181 177 184 174
311 311 308 307 307 306 309 315 322 327 334 344 349 294 314 323 324 215 226 203 179 233 204 231 208 233 271 251 299 353 279 167 188 217 144 206 255 230 211 238 228 191 190 145 117 115 112 137 162 158 130 103 121 139
312 310 306 301 301 303 310 314 320 323 312 305 290 295 289 295 239 253 216 199 206 242 189 222 223 199 232 174 230 285 298 49 208 161 167 219 248 241 231 212 193 166 131 99 91 109 98 93 103 108 102 104 110 123
308 309 306 302 301 307 316 310 307 316 318 299 229 252 237 256 246 254 203 236 263 3 354 321 271 209 205 190 231 324 305 232 141 137 231 232 307 41 54 107 99 103 110 104 95 90 92 90 92 97 97 105 116 104
311 309 309 303 303 314 298 278 326 338 314 282 277 287 231 210 245 288 335 307 295 244 288 289 273 334 345 75 146 236 250 310 310 237 236 325 49 70 52 42 109 103 104 106 105 99 95 95 87 83 90 106 109 91
310 311 305 303 311 21 227 328 324 315 255 267 266 250 242 310 293 299 281 297 307 320 347 317 255 197 308 77 324 334 275 265 245 277 292 63 28 90 76 45 65 94 95 91 101 98 92 91 88 82 77 82 90 85
315 311 328 176 286 303 307 317 309 212 241 233 234 280 272 273 337 321 311 313 308 315 290 224 273 200 157 182 196 225 304 338 335 322 287 112 92 90 104 75 55 85 94 94 85 96 102 101 99 94 82 70 65 45
302 249 324 302 311 310 311 276 204 223 246 237 241 236 262 272 261 262 296 287 273 313 325 285 301 10 316 234 185 27 359 299 311 341 340 64 121 109 119 144 121 110 102 101 98 107 109 122 117 101 94 70 46 22
245 294 305 305 315 326 273 207 238 254 247 230 242 256 225 236 270 276 263 234 119 295 286 334 283 298 339 10 47 4 318 313 309 10 26 77 108 134 163 117 119 128 117 120 128 131 130 126 105 122 115 92 105 104
284 291 290 292 310 317 305 234 219 269 259 289 275 256 239 255 254 253 273 278 217 227 288 314 287 286 284 86 317 1 334 329 328 338 42 27 104 102 102 116 130 127 132 134 142 140 131 139 145 149 138 133 112 84
299 305 298 265 222 245 262 261 245 265 270 261 282 278 239 239 263 268 281 278 105 42 337 256 232 247 166 152 155 285 276 314 320 88 97 145 201 164 163 152 148 143 124 109 110 118 121 119 160 176 161 165 135 35
332 56 347 169 191 226 268 299 274 264 301 290 279 281 270 281 267 243 260 134 91 205 238 229 242 277 55 166 107 108 271 304 356 11 46 157 176 172 151 154 155 154 138 147 134 141 176 194 179 171 188 196 181 95
137 329 296 226 243 212 241 220 228 281 290 262 304 267 279 285 271 235 147 119 227 235 209 203 219 196 224 208 190 221 170 296 296 323 58 100 109 135 165 177 156 173 178 202 195 204 223 221 205 187 195 208 211 199
293 246 242 249 280 344 264 124 264 245 269 276 313 285 287 277 249 125 256 218 257 238 250 251 254 248 242 285 289 247 185 185 268 163 230 244 265 45 153 177 196 183 207 237 239 255 260 231 214 204 201 207 214 208
300 275 269 255 206 271 319 273 226 267 279 277 260 292 278 275 320 6 39 345 291 293 311 323 276 21 36 33 340 289 270 176 165 159 174 124 77 326 1 305 250 238 241 242 214 268 287 199 196 197 203 212 220 221
49 286 98 295 278 288 269 274 255 253 282 278 292 282 291 336 23 42 225 250 289 281 295 321 324 322 264 293 290 277 299 202 166 194 203 196 211 290 282 271 272 261 237 231 240 243 252 215 207 203 200 215 232 233
278 222 162 272 91 258 293 294 262 273 285 282 269 273 330 330 142 246 258 276 322 341 328 314 308 291 268 209 252 255 269 253 228 209 251 231 235 226 240 228 246 269 234 230 235 218 209 206 198 199 210 230 242 246
283 277 239 223 229 248 271 281 267 245 277 270 311 318 316 274 243 181 286 209 244 287 298 291 278 267 264 268 262 250 252 247 219 226 243 275 267 262 236 225 224 239 246 231 215 195 181 155 150 186 233 249 249 247
247 257 211 262 246 230 245 280 269 258 292 336 348 306 316 319 319 314 284 317 306 304 296 288 280 275 263 262 272 265 268 246 239 259 268 266 258 256 253 254 260 259 258 254 218 195 213 273 25 3 324 263 255 254
260 247 201 267 239 231 218 210 243 247 217 73 346 303 320 330 274 281 291 297 306 297 291 300 327 346 334 308 275 262 246 219 176 218 231 255 317 271 234 243 238 230 222 218 216 221 220 244 320 323 324 302 281 257
265 191 233 253 256 257 255 196 229 234 212 216 243 273 306 254 267 291 286 290 291 320 328 333 352 353 325 340 324 358 276 221 217 206 190 218 235 318 358 257 266 246 227 225 230 232 230 232 226 258 260 290 277 258
215 193 239 236 261 245 241 253 260 214 195 226 228 256 277 284 300 275 275 314 329 339 19 17 31 17 0 348 346 333 347 226 218 223 222 226 242 260 291 250 247 182 216 221 227 236 238 248 245 242 247 255 265 261
201 211 200 288 282 293 305 137 291 305 226 206 250 217 269 257 278 288 247 258 342 14 20 40 50 350 316 294 295 282 283 297 354 221 206 209 227 222 239 252 240 258 264 256 234 231 233 239 253 264 267 278 279 270
172 172 214 272 296 307 330 351 26 13 338 308 291 271 285 322 316 291 335 356 341 317 312 309 292 277 280 285 282 280 271 265 246 140 162 181 206 234 246 248 275 279 271 261 254 241 235 239 248 273 285 298 306 335